Voltar ao catálogo

YUNHAI 2-2E

AtivoMeteoLEO
NORAD 59284·PAYLOAD·🇨🇳 China

Lançado Mar 21, 2024 de Jiuquan Satellite Launch Center

Loading…

Próximas Passagens (próximas 24 horas)

TLE

AtualizadoSource: Space-Track

Época: Sep 14, 2026, 21:54 UTC

1 59284U 24052E   26257.91314731 -.00000089  00000-0  29041-4 0  9990
2 59284  50.0110 302.5649 0011690  12.1751 347.9444 14.27990219119752

Acompanhe YUNHAI 2-2E em tempo real com AllMySat

Download on the App Store